Regional Weather Roundup
Issued by NWS Grand Forks, ND

Home | Current Version | Previous Version | Graphics & Text | Print | Product List | Glossary On
Versions: 1 2 3 4 5 6 7 8 9 10 11 12 13 14 15 16 17 18 19 20 21 22 23 24 25 26 27 28 29 30 31 32 33 34 35 36 37 38 39 40 41 42 43 44 45 46 47 48 49 50
000
ASUS43 KFGF 270531
RWRFGF
PRAIRIE TO PINES  WEATHER ROUNDUP
NATIONAL WEATHER SERVICE EASTERN NORTH DAKOTA/GRAND FORKS ND
1200 AM CDT THU APR 27 2017

 **SATELLITE DATA USED TO AUGMENT SKY COVER AT AUTOMATED STATIONS**
 *****  WEATHER ACROSS EASTERN NORTH DAKOTA  *****

CITY           SKY/WX    TMP DP  RH WIND       PRES   REMARKS
GRAND FORKS    LGT SNOW  31  29  92 N18       29.76F FOG     WCI  19
GRAND FRKS AFB MIX PCPN  28  28 100 NE16      29.76F FOG     WCI  17
DEVILS LAKE    CLOUDY    32  26  78 NE5       29.77F
FARGO          FLURRIES  29  27  92 N15       29.70S WCI  18
WAHPETON ARPT  CLOUDY    28  27  93 N13       29.69R WCI  18
$$

 ***** WEATHER ACROSS CENTRAL AND WESTERN NORTH DAKOTA  *****

CITY           SKY/WX    TMP DP  RH WIND       PRES   REMARKS
BISMARCK       CLOUDY    36  29  75 NE5       29.78S
MINOT          FAIR      30  25  81 E3        29.79S
JAMESTOWN      CLOUDY    30  25  81 NE13G22   29.74F WCI  20
MINOT AFB      FAIR      31  25  77 E6        29.79S
GARRISON         N/A     31  26  82 E6        29.77S
WILLISTON      FAIR      36  21  54 NE8       29.77F
DICKINSON      FAIR      28  20  71 E8        29.72S WCI  20
HETTINGER      FAIR      31  24  75 E10       29.74R WCI  22
$$

 *****  OTHER AIRPORT OBSERVATIONS IN OUR AREA  *****

CITY           SKY/WX    TMP DP  RH WIND       PRES   REMARKS
WALHALLA       NOT AVBL
GRAFTON AIRPOR LGT SNOW  30  30 100 NE17G25   29.80F WCI  18
VALLEY CITY AR CLOUDY    27  27 100 N14       29.73F WCI  15
CANDO          NOT AVBL
CAVALIER APRT  CLOUDY    34  23  64 NE8       29.78F
GWINNER        CLOUDY    28  27  93 MISG      29.71S
SHEYENNE NWR     N/A     28  26  91 N9        29.95S WCI  19
ROLLA          FAIR      30  19  64 N12       29.79S WCI  21
 ***** THE ABOVE OBSERVATIONS ARE NON NWS ARE NOT QUALITY
       CONTROLLED AND MAY MIS-REPORT RAIN FOR SNOW...
$$

  *****  WEATHER ACROSS NORTHERN MINNESOTA  *****

CITY           SKY/WX    TMP DP  RH WIND       PRES   REMARKS
FLAG ISLAND    FLURRIES  27  21  80 NE16G26   29.76F WCI  14
WARROAD        LGT SNOW  27  23  86 NE20G30   29.75F VSB 1   WCI  13
ROSEAU         LGT SNOW  27  21  80 NE18G24   29.75F WCI  13
HALLOCK        FLURRIES  30  27  86 NE17      29.78S WCI  18
THF RVR FALLS  FLURRIES  27  23  86 NE14      29.72F WCI  15
BAUDETTE       CLOUDY    25  18  74 NE15      29.72F WCI  13
WASKISH        CLOUDY    25  19  80 NE8       29.68F WCI  16
CROOKSTON      CLOUDY    28  27  93 NE10      29.74F WCI  19
STEPHEN NDAWN    N/A     28  28 100 N12         N/A  WCI  18
GREENBUSH NDAW   N/A     27  27 100 NE16        N/A  WCI  14
$$
  *****  WEATHER ACROSS CENTRAL AND WEST MINNESOTA  *****

CITY           SKY/WX    TMP DP  RH WIND       PRES   REMARKS
FOSSTON        LGT SNOW  25  21  86 N10       29.68S WCI  15
BEMIDJI        FLURRIES  24  21  89 NE16      29.65S WCI  10
PARK RAPIDS    CLOUDY    27  21  78 N10       29.62F WCI  17
ELBOW LAKE     CLOUDY    30  28  94 NW9       29.65S WCI  22
WADENA         MIX PCPN  27  25  93 N3        29.62S
DETROIT LAKES  MOCLDY    28  27  93 N5        29.66S WCI  23
MOORHEAD       CLOUDY    27  25  93 N7        29.70F WCI  19
FERGUS FALLS   CLOUDY    28  25  86 N9        29.66S WCI  20
MORRIS MN      CLOUDY    30  28  93 NW13      29.64S WCI  20
STAPLES        FLURRIES  27  27 100 N7        29.62R WCI  19
$$
  *****  WEATHER ELSEWHERE ACROSS MINNESOTA  *****

CITY           SKY/WX    TMP DP  RH WIND       PRES   REMARKS
DULUTH         CLOUDY    25  22  88 N6        29.59R WCI  18
INTRNTL FALLS  CLOUDY    24  16  71 NE9G22    29.68F WCI  14
ELY            CLOUDY    21  18  86 N7        29.61F WCI  13
CLOQUET        CLOUDY    27  21  80 N6        29.60R WCI  20
WHEATON        CLOUDY    28  27  93 NW13G18   29.69F WCI  18
BRAINERD       CLOUDY    29  26  89 NE9       29.62R WCI  20
HIBBING        CLOUDY    23  19  85 N9        29.60F WCI  13
ALEXANDRIA     CLOUDY    29  26  89 N9        29.62S WCI  20
SAINT CLOUD    CLOUDY    31  30  96 NW6       29.60F
MINNEAPOLIS    CLOUDY    36  30  79 N8        29.59R
$$

  *****  WEATHER ACROSS SOUTH DAKOTA  *****

CITY           SKY/WX    TMP DP  RH WIND       PRES   REMARKS
SIOUX FALLS    CLOUDY    32  26  78 N14       29.68F WCI  22
BROOKINGS      CLOUDY    28  25  86 N12       29.66F WCI  18
WATERTOWN      CLOUDY    27  23  85 N13       29.66S WCI  16
HURON          CLOUDY    31  26  82 NE13      29.73R WCI  21
SISSETON         N/A     29  26  89 N17       29.68F WCI  17
ABERDEEN       MOCLDY    29  23  78 N14       29.73S WCI  18
MITCHELL       CLOUDY    33  27  78 N13       29.74R WCI  24
PIERRE         FAIR      29  24  82 E3        29.72S
MOBRIDGE       MOCLDY    33  25  72 NE8       29.72S
RAPID CITY     FAIR      31  27  85 W7        29.71F WCI  24
$$

  *****  SOME WEATHER IN NEARBY STATES *****

CITY           SKY/WX    TMP DP  RH WIND       PRES   REMARKS
GLASGOW MT     FAIR      38  24  57 E14       29.69F
GREAT FALLS MT CLOUDY    42  39  89 CALM      29.61F
CHEYENNE WY    CLOUDY    41  32  70 SW9       29.70F
SCOTTSBLUFF NE MOCLDY    41  37  86 E7        29.69F
OMAHA NE       CLOUDY    40  31  70 NW10      29.69S
DES MOINES IA  CLOUDY    41  34  76 NW17      29.61R
DAVENPORT IA   LGT RAIN  45  42  89 NW14      29.48F
CHICAGO IL     LGT RAIN  62  59  90 S10       29.41F FOG
EAU CLAIRE WI  CLOUDY    37  33  85 N7        29.52S
LA CROSSE WI   CLOUDY    43  38  82 N12       29.51F
$$

  *****  SOME NATIONAL WEATHER *****

CITY           SKY/WX    TMP DP  RH WIND       PRES   REMARKS
LA GUARDIA NY  DRZL/FOG  57  56  96 CALM      29.84S VSB 1/4
RALEIGH NC     FAIR      68  64  87 S6        29.84R
ATLANTA GA     FAIR      68  57  68 S9        29.81S
NEW ORLEANS LA MOCLDY    76  73  91 S12       29.69S
OKLAHOMA CITY  FAIR      43  40  89 S3        29.75F
ALBUQUERQUE NM MOCLDY    56  28  34 SE5       29.78F
SALT LAKE CITY MOCLDY    47  44  90 SE7       29.73S
LOS ANGELES CA FAIR      60  56  86 S5        29.83S
BOISE ID       FAIR      45  39  79 NW13      29.81R
SEATTLE WA     FAIR      47  37  68 SW16      29.96R
$$

*** WEATHER ACROSS MANITOBA...SASKATCHEWAN AND ONTARIO ***
                ***ONTARIO***

CITY           SKY/WX    TMP DP  RH WIND       PRES   REMARKS
GERALDTON      LGTSLEET  16  12  86 NE13G24   29.69F VSB 3/4 WCI   2
THUNDER BAY    CLOUDY    23  19  86 NE6       29.63F WCI  16
SIOUX LOOKOUT  FLURRIES  19  14  79 NE10G18   29.77F WCI   8
TORONTO        CLEAR     54  52  94 SE3       29.68F
BIG TROUT LK   MOCLDY    21   9  58 E8G17     30.10F WCI  12
PICKLE LAKE    NOT AVBL
DRYDEN         FLURRIES  21  16  79 NE20G29   29.75F WCI   6
KENORA         FLURRIES  25  18  74 NE13G24   29.77F WCI  13
$$
                *** MANITOBA***

CITY           SKY/WX    TMP DP  RH WIND       PRES   REMARKS
BRANDON        PTCLDY    28  19  69 NE8       29.84F WCI  20
DAUPHIN        CLEAR     30  19  64 CALM      29.90F
ISLAND LAKE    CLEAR     25   9  50 E6        30.04F WCI  18
PILOT MOUND      N/A     32  19  59 NE8         N/A  WCI  25
THE PAS        CLEAR     25  12  58 CALM      29.98F
THOMPSON       CLEAR     23   5  46 E5        30.06F WCI  17
WINNIPEG       CLOUDY    36  12  38 NE12      29.82F
LYNN LAKE      CLEAR     27   5  39 SE3       30.01S
CHURCHILL      PTCLDY    14   5  67 S10       30.13S WCI   1
GILLAM         CLEAR     21   1  42 SE6       30.13F WCI  14
$$
                ***SASKATCHEWAN***

CITY           SKY/WX    TMP DP  RH WIND       PRES   REMARKS
ESTEVAN        PTCLDY    32  25  74 E10       29.80F WCI  24
KINDERSLEY     LGT SNOW  32  32 100 E21G28    29.70F WCI  20
LLOYDMINSTER   LGT RAIN  34  30  86 SE14G20   29.78S WCI  24
PRINCE ALBERT  MOCLDY    28  16  59 E7        29.88S WCI  21
REGINA         PTCLDY    36  21  55 E16       29.79F
YORKTON        PTCLDY    28  21  74 E6        29.87S WCI  22
N. BATTLEFORD  CLOUDY    34  23  64 E8        29.82S
LA RONGE       PTCLDY    32  12  43 SE5       29.93S
SASKATOON      MOCLDY    36  21  55 E10       29.83S
SWIFT CURRENT  PTCLDY    39  27  60 SE21G28   29.65S
$$
NOTE: THESE ARE AUTOMATED STATIONS WITH LIMITED QUALITY CONTROL
      "FAIR" INDICATES FEW OR NO CLOUDS BELOW 12,000 FEET WITH NO
      SIGNIFICANT WEATHER AND/OR OBSTRUCTIONS TO VISIBILITY.
      SKY/WX - SKY CONDITION AND SIGNIFICANT WEATHER.
      TMP - AIR TEMPERATURE.    DP   - DEWPOINT TEMPERATURE.
      RH  - RELATIVE HUMIDITY.  PRES - PRESSURE.
      HX  - HEAT INDEX.         WCI  - WIND CHILL INDEX.
$